![]() |
EMODnet Physics ERDDAP
Easier access to scientific data |
log in|
Brought to you by EMODnet Physics |
| Dataset Title: | NDBC - Collection of dew point temperature (DEWT) TimeSeries - IN SITU MultiPointTimeSeriesObservation
|
| Institution: | NDBC (Dataset ID: TS_DEWT_NDBC) |
| Information: | Summary
| License
| FGDC
| ISO 19115
| Metadata
| Background
| Subset
| Data Access Form
| Make a graph
|
| Name | Last modified | Size | Description | |
|---|---|---|---|---|
| Parent Directory | - | - | ||
| 45175_TS_DEWT_042017.nc | 26-Dec-2024 12:34 | 451003 | ||
| 45175_TS_DEWT_042021.nc | 26-Dec-2024 12:43 | 451421 | ||
| 45175_TS_DEWT_052016.nc | 26-Dec-2024 12:31 | 449901 | ||
| 45175_TS_DEWT_052019.nc | 26-Dec-2024 12:38 | 429914 | ||
| 45175_TS_DEWT_052020.nc | 26-Dec-2024 12:41 | 450965 | ||
| 45175_TS_DEWT_052021.nc | 26-Dec-2024 12:44 | 429911 | ||
| 45175_TS_DEWT_052022.nc | 26-Dec-2024 12:48 | 429918 | ||
| 45175_TS_DEWT_052023.nc | 26-Dec-2024 12:52 | 451698 | ||
| 45175_TS_DEWT_052025.nc | 17-Feb-2026 15:33 | 451209 | ||
| 45175_TS_DEWT_062016.nc | 26-Dec-2024 12:32 | 450079 | ||
| 45175_TS_DEWT_062019.nc | 26-Dec-2024 12:39 | 450126 | ||
| 45175_TS_DEWT_062020.nc | 26-Dec-2024 12:41 | 450953 | ||
| 45175_TS_DEWT_062021.nc | 26-Dec-2024 12:45 | 451430 | ||
| 45175_TS_DEWT_062022.nc | 26-Dec-2024 12:48 | 451831 | ||
| 45175_TS_DEWT_062023.nc | 26-Dec-2024 12:52 | 450974 | ||
| 45175_TS_DEWT_062025.nc | 17-Feb-2026 15:34 | 443034 | ||
| 45175_TS_DEWT_072016.nc | 26-Dec-2024 12:32 | 451775 | ||
| 45175_TS_DEWT_072019.nc | 26-Dec-2024 12:39 | 443509 | ||
| 45175_TS_DEWT_072020.nc | 26-Dec-2024 12:42 | 449142 | ||
| 45175_TS_DEWT_072021.nc | 26-Dec-2024 12:45 | 449915 | ||
| 45175_TS_DEWT_072022.nc | 26-Dec-2024 12:49 | 434190 | ||
| 45175_TS_DEWT_072023.nc | 26-Dec-2024 12:54 | 440783 | ||
| 45175_TS_DEWT_072025.nc | 17-Feb-2026 15:34 | 449251 | ||
| 45175_TS_DEWT_082015.nc | 26-Dec-2024 12:30 | 429575 | ||
| 45175_TS_DEWT_082016.nc | 26-Dec-2024 12:33 | 451122 | ||
| 45175_TS_DEWT_082019.nc | 26-Dec-2024 12:40 | 429575 | ||
| 45175_TS_DEWT_082020.nc | 26-Dec-2024 12:42 | 429576 | ||
| 45175_TS_DEWT_082021.nc | 26-Dec-2024 12:46 | 448961 | ||
| 45175_TS_DEWT_082022.nc | 26-Dec-2024 12:49 | 449124 | ||
| 45175_TS_DEWT_082023.nc | 26-Dec-2024 12:55 | 449145 | ||
| 45175_TS_DEWT_082025.nc | 17-Feb-2026 15:34 | 448770 | ||
| 45175_TS_DEWT_092015.nc | 26-Dec-2024 12:31 | 450415 | ||
| 45175_TS_DEWT_092016.nc | 26-Dec-2024 12:33 | 418875 | ||
| 45175_TS_DEWT_092019.nc | 26-Dec-2024 12:40 | 425284 | ||
| 45175_TS_DEWT_092020.nc | 26-Dec-2024 12:42 | 450162 | ||
| 45175_TS_DEWT_092021.nc | 26-Dec-2024 12:46 | 449141 | ||
| 45175_TS_DEWT_092022.nc | 26-Dec-2024 12:50 | 448624 | ||
| 45175_TS_DEWT_092023.nc | 26-Dec-2024 12:56 | 429571 | ||
| 45175_TS_DEWT_092025.nc | 17-Feb-2026 15:35 | 450619 | ||
| 45175_TS_DEWT_102015.nc | 26-Dec-2024 12:31 | 450589 | ||
| 45175_TS_DEWT_102016.nc | 26-Dec-2024 12:33 | 449506 | ||
| 45175_TS_DEWT_102019.nc | 26-Dec-2024 12:40 | 450177 | ||
| 45175_TS_DEWT_102020.nc | 26-Dec-2024 12:43 | 429156 | ||
| 45175_TS_DEWT_102021.nc | 26-Dec-2024 12:47 | 450022 | ||
| 45175_TS_DEWT_102022.nc | 26-Dec-2024 12:51 | 429914 | ||
| 45175_TS_DEWT_102023.nc | 26-Dec-2024 12:56 | 429917 | ||
| 45175_TS_DEWT_102025.nc | 17-Feb-2026 15:36 | 451203 | ||
| 45175_TS_DEWT_112019.nc | 26-Dec-2024 12:41 | 449838 | ||
| 45175_TS_DEWT_112020.nc | 26-Dec-2024 12:43 | 450468 | ||
| 45175_TS_DEWT_112022.nc | 26-Dec-2024 12:51 | 450272 | ||
| 45175_TS_DEWT_112023.nc | 26-Dec-2024 12:57 | 451361 | ||